DW5244 Weather Reports


Display with metric or nautical units.
time (UTC)temp
F
wind
direction
speed
MPH
gust
MPH
rain 1hr
in
rain 24hr
in
rain mn
in
humidity
%
barometer
mb
20220705224518 99 170 9.0 12.0 0.00 0.00 0.00 25 1004.4
20220705223015 99 126 5.0 10.0 0.00 0.00 0.00 26 1004.8
20220705221512 99 140 5.0 11.0 0.00 0.00 0.00 26 1004.9
20220705220012 100 173 6.0 12.0 0.00 0.00 0.00 25 1005.0
20220705214507 99 177 10.0 14.0 0.00 0.00 0.00 26 1005.2
20220705213002 98 189 7.0 13.0 0.00 0.00 0.00 27 1005.5
20220705211600 98 153 6.0 11.0 0.00 0.00 0.00 27 1005.7
20220705210057 98 141 5.0 17.0 0.00 0.00 0.00 28 1006.0
20220705204555 97 240 13.0 18.0 0.00 0.00 0.00 29 1006.2
20220705203053 96 241 8.0 17.0 0.00 0.00 0.00 30 1006.4
20220705201549 96 167 9.0 17.0 0.00 0.00 0.00 31 1006.7
20220705200046 96 161 8.0 21.0 0.00 0.00 0.00 32 1007.0
20220705194544 95 234 8.0 17.0 0.00 0.00 0.00 32 1007.4
20220705193043 95 153 8.0 12.0 0.00 0.00 0.00 32 1007.5
20220705191541 96 129 6.0 11.0 0.00 0.00 0.00 33 1007.8
20220705190046 95 111 4.0 9.0 0.00 0.00 0.00 34 1008.0
20220705184536 95 168 6.0 14.0 0.00 0.00 0.00 34 1008.2
20220705183038 93 192 3.0 13.0 0.00 0.00 0.00 37 1008.5
20220705181534 93 204 8.0 17.0 0.00 0.00 0.00 38 1008.4
20220705180031 93 73 4.0 11.0 0.00 0.00 0.00 40 1008.7
20220705174530 91 173 4.0 14.0 0.00 0.00 0.00 41 1009.0
20220705173026 89 114 4.0 9.0 0.00 0.00 0.00 45 1009.1
20220705171523 87 189 6.0 10.0 0.00 0.00 0.00 46 1009.3
20220705170021 88 189 6.0 9.0 0.00 0.00 0.00 45 1009.3
20220705164523 87 143 4.0 14.0 0.00 0.00 0.00 47 1009.4
20220705163019 88 146 4.0 14.0 0.00 0.00 0.00 46 1009.4
20220705161518 87 150 4.0 8.0 0.00 0.00 0.00 49 1009.3
20220705160013 86 149 2.0 9.0 0.00 0.00 0.00 50 1009.5
20220705154514 87 177 3.0 8.0 0.00 0.00 0.00 48 1009.5
20220705153008 85 88 2.0 9.0 0.00 0.00 0.00 52 1009.7
20220705151502 84 80 1.0 8.0 0.00 0.00 0.00 53 1009.7
20220705150058 83 103 1.0 9.0 0.00 0.00 0.00 56 1009.7
20220705144559 80 360 4.0 8.0 0.00 0.00 0.00 61 1009.8
20220705143058 78 325 3.0 6.0 0.00 0.00 0.00 67 1009.7
20220705141546 76 313 5.0 9.0 0.00 0.00 0.00 67 1009.8
20220705140041 75 306 4.0 8.0 0.00 0.00 0.00 70 1009.8
20220705135340 75 331 5.0 9.0 0.00 0.00 0.00 71 1019.9
20220705134642 74 340 7.0 10.0 0.00 0.00 0.00 72 1009.9
20220705133035 73 332 7.0 10.0 0.00 0.00 0.00 74 1009.8
20220705131544 73 360 6.0 10.0 0.00 0.00 0.00 75 1009.7
20220705130029 72 331 8.0 11.0 0.00 0.00 0.00 75 1009.7
20220705124527 72 315 8.0 11.0 0.00 0.00 0.00 75 1009.6
20220705123031 72 326 10.0 12.0 0.00 0.00 0.00 74 1009.4
20220705121521 72 317 7.0 10.0 0.00 0.00 0.00 74 1009.3
20220705120018 72 312 5.0 11.0 0.00 0.00 0.00 74 1009.3
20220705114518 72 319 6.0 9.0 0.00 0.00 0.00 73 1009.2
20220705113018 72 337 5.0 10.0 0.00 0.00 0.00 73 1009.2
20220705111521 72 341 8.0 12.0 0.00 0.00 0.00 74 1009.2
20220705110018 72 338 8.0 11.0 0.00 0.00 0.00 74 1009.0
20220705104516 72 341 8.0 11.0 0.00 0.00 0.00 74 1008.8
20220705103015 72 349 8.0 12.0 0.00 0.00 0.00 74 1008.9
20220705101514 72 360 7.0 10.0 0.00 0.00 0.00 74 1008.8
20220705100013 72 355 10.0 13.0 0.00 0.00 0.00 74 1008.8
20220705094514 72 346 8.0 11.0 0.00 0.00 0.00 73 1008.7
20220705093013 73 348 5.0 10.0 0.00 0.00 0.00 73 1008.5
20220705091513 73 350 8.0 10.0 0.00 0.00 0.00 72 1008.3
20220705090007 73 360 5.0 9.0 0.00 0.00 0.00 71 1008.6
20220705084505 73 347 3.0 10.0 0.00 0.00 0.00 70 1008.7
20220705083002 73 348 7.0 13.0 0.00 0.00 0.00 70 1009.0
20220705081559 74 333 10.0 13.0 0.00 0.00 0.00 69 1008.9
20220705081503 74 333 9.0 12.0 0.00 0.00 0.00 69 1008.8
20220705080059 74 360 6.0 13.0 0.00 0.00 0.00 68 1008.8
20220705074558 74 337 8.0 13.0 0.00 0.00 0.00 68 1008.8
20220705073056 74 360 9.0 12.0 0.00 0.00 0.00 68 1008.9
20220705071552 75 341 7.0 10.0 0.00 0.00 0.00 66 1008.8
20220705070051 75 342 7.0 11.0 0.00 0.00 0.00 65 1008.9
20220705064550 75 19 3.0 12.0 0.00 0.00 0.00 65 1008.9
20220705063049 74 31 4.0 12.0 0.00 0.00 0.00 66 1008.9
20220705061547 74 350 1.0 6.0 0.00 0.00 0.00 65 1008.9
20220705060046 75 360 6.0 8.0 0.00 0.00 0.00 65 1009.2
20220705054544 75 9 5.0 12.0 0.00 0.00 0.00 68 1009.0
20220705053041 75 28 3.0 8.0 0.00 0.00 0.00 67 1009.2
20220705051540 75 355 4.0 14.0 0.00 0.00 0.00 66 1009.3
20220705050038 75 341 6.0 10.0 0.00 0.00 0.00 66 1009.4
20220705044536 76 15 4.0 9.0 0.00 0.00 0.00 67 1009.3
20220705043039 75 355 7.0 12.0 0.00 0.00 0.00 67 1009.2
20220705041536 75 5 7.0 11.0 0.00 0.00 0.00 68 1008.9
20220705040033 75 348 10.0 11.0 0.00 0.02 0.00 68 1008.8
20220705034532 75 342 8.0 12.0 0.00 0.02 0.00 68 1008.7
20220705033034 76 360 9.0 12.0 0.00 0.02 0.00 68 1008.3
20220705031531 76 345 8.0 13.0 0.00 0.02 0.00 68 1008.4
20220705030042 76 355 9.0 12.0 0.00 0.02 0.00 68 1008.2
20220705024529 76 342 9.0 12.0 0.00 0.02 0.00 68 1008.2
20220705023028 76 331 12.0 17.0 0.00 0.02 0.00 67 1008.1
20220705021528 76 323 8.0 12.0 0.00 0.02 0.00 67 1008.3
20220705020028 76 65 6.0 16.0 0.00 0.10 0.00 66 1008.4
20220705014527 77 65 7.0 18.0 0.00 0.10 0.00 65 1008.4
20220705013026 77 65 9.0 19.0 0.00 0.10 0.00 62 1008.3
20220705011525 78 53 11.0 20.0 0.00 0.10 0.00 60 1008.3
20220705010025 78 23 9.0 21.0 0.00 0.10 0.00 58 1008.3
20220705004524 78 82 7.0 18.0 0.00 0.10 0.00 59 1008.1
20220705003024 78 57 8.0 15.0 0.00 0.10 0.00 61 1008.1
20220705001523 77 351 12.0 16.0 0.00 0.10 0.00 62 1007.7
20220705000022 77 335 10.0 16.0 0.00 0.10 0.00 63 1007.2
20220704234530 78 346 10.0 16.0 0.00 0.10 0.00 65 1007.1
20220704233021 78 360 11.0 17.0 0.00 0.10 0.00 63 1007.2
20220704231522 79 360 15.0 18.0 0.00 0.10 0.00 61 1007.3
20220704230019 80 341 13.0 16.0 0.00 0.10 0.00 58 1007.2